CW5752 Weather Reports


time (UTC)temp
C
wind
direction
speed
KPH
gust
KPH
rain 1hr
cm
rain 24hr
cm
rain mn
cm
humidity
%
barometer
mb
20260506224521 16 338 1.6 6.4 0.00 1.27 0.08 56 1014.5
20260506223521 16 327 1.6 8.0 0.00 1.27 0.08 51 1014.8
20260506222521 16 308 3.2 8.0 0.00 1.27 0.08 54 1014.8
20260506221602 15 315 0.0 3.2 0.00 1.27 0.08 60 1014.7
20260506220541 16 330 0.0 6.4 0.00 1.27 0.08 56 1015.0
20260506215516 15 341 0.0 1.6 0.00 1.30 0.08 63 1015.1
20260506214521 15 341 0.0 6.4 0.00 1.30 0.08 64 1015.1
20260506213521 15 340 1.6 8.0 0.00 1.30 0.08 59 1015.0
20260506212521 16 325 3.2 6.4 0.00 1.30 0.08 60 1015.1
20260506211521 16 330 3.2 8.0 0.00 1.30 0.08 56 1015.0
20260506210521 16 298 1.6 8.0 0.00 1.30 0.08 55 1015.0
20260506205536 16 305 1.6 6.4 0.00 1.30 0.08 53 1015.0
20260506204541 16 344 1.6 8.0 0.00 1.32 0.08 53 1015.1
20260506203521 16 330 3.2 6.4 0.00 1.32 0.08 56 1015.2
20260506202521 16 334 1.6 6.4 0.00 1.32 0.08 53 1015.3
20260506201521 16 349 3.2 8.0 0.00 1.35 0.08 50 1015.6
20260506200521 16 272 3.2 11.3 0.00 1.35 0.08 52 1015.6
20260506195521 16 314 1.6 6.4 0.00 1.35 0.08 59 1015.4
20260506194516 16 331 1.6 8.0 0.00 1.35 0.08 56 1015.3
20260506193521 16 299 3.2 8.0 0.00 1.35 0.08 60 1015.2
20260506192541 17 327 3.2 8.0 0.00 1.35 0.08 55 1015.3
20260506191521 16 328 1.6 8.0 0.00 1.35 0.08 62 1015.2
20260506190521 16 350 0.0 8.0 0.00 1.37 0.08 54 1015.2
20260506185541 16 272 1.6 9.7 0.00 1.40 0.08 63 1015.1
20260506184516 16 322 0.0 11.3 0.00 1.52 0.08 62 1015.2
20260506183516 16 331 1.6 9.7 0.00 1.52 0.08 64 1015.3
20260506182521 15 310 0.0 8.0 0.00 1.52 0.08 62 1015.5
20260506181521 15 280 1.6 8.0 0.00 1.52 0.08 62 1015.5
20260506180521 14 303 3.2 11.3 0.00 1.52 0.08 60 1015.7
20260506175521 15 319 1.6 8.0 0.00 1.52 0.08 64 1015.8
20260506174521 15 324 1.6 11.3 0.00 1.52 0.08 67 1015.8
20260506173516 14 322 0.0 6.4 0.00 1.52 0.08 64 1015.7
20260506172521 14 321 1.6 9.7 0.00 1.52 0.08 69 1015.6
20260506171521 14 323 1.6 9.7 0.00 1.52 0.08 66 1015.8
20260506170521 14 293 1.6 9.7 0.00 1.52 0.08 67 1015.9
20260506165521 13 331 0.0 3.2 0.00 1.52 0.08 69 1015.7
20260506164521 14 306 1.6 8.0 0.00 1.52 0.08 68 1015.7
20260506163521 13 272 0.0 6.4 0.00 1.52 0.08 67 1015.9
20260506162516 13 273 1.6 11.3 0.00 1.52 0.08 71 1015.7
20260506161521 13 311 0.0 4.8 0.00 1.52 0.08 69 1015.6
20260506160541 13 311 0.0 6.4 0.00 1.52 0.08 70 1015.6
20260506155521 13 311 0.0 6.4 0.00 1.52 0.08 76 1015.2
20260506154521 13 312 0.0 6.4 0.00 1.52 0.08 75 1015.3
20260506153521 12 312 0.0 6.4 0.00 1.52 0.08 77 1015.2
20260506152516 12 312 0.0 6.4 0.00 1.52 0.08 80 1015.2
20260506151516 11 317 0.0 4.8 0.00 1.52 0.08 84 1015.1
20260506150521 11 316 0.0 4.8 0.00 1.52 0.08 86 1015.6
20260506145521 10 315 0.0 4.8 0.00 1.52 0.08 87 1015.8
20260506144521 10 327 0.0 3.2 0.00 1.52 0.08 87 1015.5
20260506143519 10 327 0.0 3.2 0.00 1.52 0.08 88 1015.3
20260506142521 10 327 0.0 3.2 0.00 1.52 0.08 88 1015.1
20260506141536 10 327 0.0 3.2 0.00 1.52 0.08 89 1014.6
20260506140521 10 327 1.6 8.0 0.00 1.55 0.08 89 1014.9
20260506135521 10 342 1.6 11.3 0.00 1.57 0.08 88 1014.8
20260506134521 10 311 1.6 6.4 0.00 1.68 0.08 89 1014.4
20260506133521 10 311 1.6 6.4 0.00 1.80 0.08 89 1014.4
20260506132521 10 312 0.0 3.2 0.00 1.98 0.08 91 1014.4
20260506131521 9 312 0.0 3.2 0.00 2.11 0.08 90 1014.3
20260506130516 9 312 0.0 3.2 0.00 2.46 0.08 90 1013.9
20260506125601 9 312 0.0 6.4 0.00 2.82 0.08 91 1013.8
20260506124542 8 312 0.0 4.8 0.00 3.12 0.08 91 1013.6
20260506123521 8 311 0.0 4.8 0.00 3.12 0.08 92 1013.7
20260506122521 8 311 0.0 8.0 0.00 3.12 0.08 92 1014.0
20260506121521 8 260 1.6 4.8 0.00 3.12 0.08 92 1014.0
20260506120516 8 260 0.0 3.2 0.00 3.12 0.08 92 1013.8
20260506115516 8 260 0.0 6.4 0.00 3.12 0.08 92 1013.2
20260506114702 8 259 0.0 1.6 0.00 3.12 0.08 93 1013.3
20260506113521 8 0.0 3.2 0.00 3.12 0.08 93 1013.0
20260506112521 8 0.0 0.0 0.00 3.12 0.08 93 1012.8
20260506111521 8 333 0.0 6.4 0.00 3.12 0.08 93 1012.5
20260506110521 8 0.0 0.0 0.00 3.12 0.08 93 1012.0
20260506105516 8 338 0.0 3.2 0.00 3.12 0.08 93 1012.2
20260506104541 8 0.0 0.0 0.00 3.12 0.08 93 1012.6
20260506103521 8 338 0.0 3.2 0.00 3.12 0.08 93 1012.9
20260506102521 8 338 0.0 3.2 0.00 3.12 0.08 93 1012.6
20260506101521 8 337 0.0 4.8 0.00 3.12 0.08 93 1012.9
20260506100521 8 0.0 0.0 0.00 3.12 0.08 93 1012.8
20260506095521 8 0.0 0.0 0.00 3.12 0.08 93 1012.7
20260506094556 8 340 0.0 3.2 0.00 3.12 0.08 93 1011.9
20260506093521 8 340 0.0 3.2 0.00 3.12 0.08 93 1011.7
20260506092521 8 0.0 0.0 0.00 3.12 0.08 93 1011.8
20260506091521 8 0.0 0.0 0.00 3.12 0.08 93 1011.9
20260506090541 8 0.0 3.2 0.00 3.12 0.08 93 1011.9
20260506085521 8 340 0.0 3.2 0.00 3.12 0.08 93 1011.8
20260506084521 8 0.0 3.2 0.00 3.12 0.08 93 1011.6
20260506083516 7 0.0 4.8 0.00 3.12 0.08 93 1012.0
20260506082521 7 340 0.0 3.2 0.00 3.12 0.08 93 1011.6
20260506081521 7 0.0 1.6 0.00 3.12 0.08 93 1011.6
20260506080521 7 0.0 3.2 0.00 3.12 0.08 93 1012.4
20260506073516 7 0.0 1.6 0.03 3.12 0.08 93 1010.9
20260506072536 7 0.0 4.8 0.03 3.12 0.08 92 1011.0
20260506071521 7 341 1.6 4.8 0.05 3.12 0.08 92 1011.2
20260506070521 7 341 0.0 3.2 0.05 3.12 0.08 92 1011.4
20260506062515 7 315 0.0 6.4 0.03 3.10 0.05 92 1010.9
20260506061521 7 121 0.0 6.4 0.00 3.07 0.03 92 1010.7
20260506060521 7 313 0.0 4.8 0.00 3.07 0.03 92 1011.0
20260506050521 7 340 3.2 9.7 0.20 3.07 0.03 92 1011.3
20260506044522 8 340 3.2 19.3 0.15 2.97 2.97 92 1011.2
20260506043521 8 348 4.8 11.3 0.08 2.90 2.87 92 1010.8
20260506042542 8 342 1.6 14.5 0.08 2.87 2.84 93 1010.4
20260506041521 8 330 4.8 12.9 0.13 2.87 2.84 93 1010.6
20260506040521 8 354 4.8 11.3 0.15 2.87 2.84 93 1010.3
20260506035517 8 340 3.2 11.3 0.18 2.84 2.84 93 1010.7
20260506034516 8 319 0.0 8.0 0.23 2.82 2.82 93 1010.3
20260506033522 8 318 1.6 4.8 0.25 2.82 2.82 93 1010.6
20260506032522 8 319 1.6 8.0 0.25 2.79 2.79 93 1010.6
20260506031521 8 330 1.6 4.8 0.18 2.74 2.74 93 1010.6
20260506030521 8 329 0.0 8.0 0.30 2.72 2.72 93 1010.5
20260506025522 8 333 0.0 9.7 0.25 2.64 2.64 93 1010.1
20260506024516 8 335 0.0 9.7 0.28 2.59 2.59 93 1009.5
20260506023536 9 346 0.0 11.3 0.28 2.57 2.57 93 1009.4
20260506022522 9 346 1.6 6.4 0.25 2.54 2.54 93 1009.8
20260506021522 9 338 0.0 9.7 0.28 2.54 2.54 93 1009.0
20260506020521 9 335 3.2 8.0 0.20 2.39 2.39 93 1009.8
20260506015520 9 343 3.2 9.7 0.23 2.36 2.36 93 1009.4
20260506014541 9 324 0.0 8.0 0.36 2.31 2.31 92 1008.7
20260506013516 9 324 0.0 8.0 0.33 2.29 2.29 93 1008.4
20260506012521 9 352 3.2 14.5 0.33 2.29 2.29 92 1008.5
20260506011522 10 344 3.2 12.9 0.30 2.26 2.26 92 1008.2
20260506010522 10 337 1.6 8.0 0.33 2.18 2.18 92 1008.5
20260506005542 10 333 1.6 6.4 0.28 2.13 2.13 92 1008.8
20260506004522 10 4 1.6 4.8 0.10 1.96 1.96 92 1008.3
20260506003521 10 5 0.0 4.8 0.10 1.96 1.96 92 1007.9
20260506002516 10 105 0.0 3.2 0.10 1.96 1.96 92 1007.5
20260506001521 10 107 0.0 8.0 0.10 1.96 1.96 91 1007.6
20260506000521 10 0.0 3.2 0.00 1.85 1.85 91 1007.6
20260505235521 10 333 0.0 4.8 0.00 1.85 1.85 91 1008.0
20260505234521 10 334 0.0 6.4 0.00 1.85 1.85 90 1008.0
20260505233542 10 334 0.0 8.0 0.00 1.85 1.85 90 1008.0
20260505232517 10 345 0.0 3.2 0.00 1.85 1.85 91 1008.2
20260505231517 10 347 0.0 4.8 0.00 1.85 1.85 91 1007.8
20260505230521 10 137 0.0 4.8 0.00 1.85 1.85 91 1007.9
20260505225521 10 297 0.0 6.4 0.03 1.85 1.85 91 1007.4